Location: Albert Place
(40.7505°N, 111.9230°W)
Time: 14:24:54
(UTC+00:00)

Meteor 1-25 Rocket - Pass Details

Date: 13 December 2025
Orbit: 838 x 888 km, 81.2° (Epoch: 17 January)

Event Time Altitude Azimuth Distance (km) Brightness Sun altitude
Rises 14:06:56 0° 195° (SSW) 3,449 7.5 -7.0°
Reaches altitude 10° 14:09:22 10° 197° (SSW) 2,522 6.8 -6.6°
Maximum altitude 14:15:05 69° 281° (W) 942 4.3 -5.6°
Drops below altitude 10° 14:20:54 10° 5° (N) 2,559 6.5 -4.6°
Sets 14:23:24 0° 8° (N) 3,504 7.2 -4.2°
